Вернуться в каталог

STARLINK-3764

АктивенСвязьVLEO
NORAD 52280·PAYLOAD·🇺🇸 United States

Запущен Apr 21, 2022 с Cape Canaveral Space Force Station

Loading…

Ближайшие Пролёты (ближайшие 24 часа)

TLE

СвежийSource: CelesTrak SupGP

Эпоха: Sep 14, 2026, 21:37 UTC

1 52280C 22041V   26257.90118056 -.00025636  00000+0 -82454-3 0  2574
2 52280  53.1586 327.1315 0001207  80.2601 285.6506 15.31709015    11

Отслеживайте STARLINK-3764 в реальном времени с AllMySat

Download on the App Store